[[{"header":{"parameterUnit":"m.s-1","parameterCategory":1,"la1":30.2991,"la2":30.254,"lo1":-89.0895,"lo2":-89.0444,"dy":0.0017,"dx":0.0017,"nx":28,"ny":28,"refTime":"2024-03-18T03:00:00:Z","depth":0,"parameterNumber":2,"parameterNumberName":"U-component_of_WINDS"},"data":[0,0,0,0,0,0,0,0,0,0,0,0,0,0,0,0,0,0,0,0,0,0,0,0,0,0,0,0,0,0,0,0,0,0,0,0,0,0,0,0,0,0,0,0,0,0,0,0,0,0,0,0,0,0,0,0,0,0,2.7292,2.7293,0,2.7395,2.7396,2.7397,2.7398,2.7397,2.7395,2.7394,2.7501,2.7505,2.7509,0,0,0,0,0,0,0,0,0,0,0,0,0,2.7097,2.7101,2.7292,2.7293,2.7295,2.7395,2.7396,2.7397,2.7398,2.7397,2.7395,2.7394,2.75,2.7504,2.7509,0,0,0,0,0,0,0,0,0,0,0,0,0,2.7189,2.7102,2.7292,2.7307,2.731,2.7394,2.7396,2.7398,2.7399,2.7397,2.7395,2.7393,2.7498,2.7504,2.751,2.7587,0,0,2.7529,2.7531,0,0,0,0,0,0,0,0,2.7184,2.7196,2.7304,2.7306,2.7309,2.7382,2.7366,2.7461,2.7399,2.7365,2.7394,2.7392,2.7463,2.7472,2.7495,2.7592,2.7596,2.7529,2.7533,2.7535,2.7537,0,0,0,0,0,0,0,2.7177,2.7192,2.7333,2.7305,2.7309,2.7309,2.732,2.7384,2.7424,2.7368,2.7368,2.738,2.7464,2.7489,2.7498,2.7598,2.7529,2.7534,2.7538,2.754,2.776,2.7762,0,0,0,0,0,0,2.7168,2.7186,2.7329,2.7336,2.724,2.7314,2.7326,2.736,2.7423,2.7431,2.7382,2.738,2.748,2.7491,2.7502,2.7593,2.7535,2.7541,2.7545,2.7757,2.776,2.7762,0,0,0,0,0,0,2.7164,2.7181,2.7325,2.7261,2.728,2.7319,2.7358,2.7363,2.7389,2.7433,2.7441,2.74,2.7479,2.7493,2.7565,2.7597,2.7544,2.7549,2.7755,2.7758,2.7761,2.7779,0,0,0,0,0,0,2.7158,2.7179,2.7209,2.7262,2.7283,2.7387,2.736,2.7367,2.7399,2.7398,2.7453,2.746,2.7478,2.7556,2.7571,2.7604,2.7554,2.7752,2.7756,2.776,2.7775,2.7782,2.7788,0,0,0,0,0,2.7151,2.7211,2.721,2.7228,2.7321,2.7389,2.7401,2.742,2.7402,2.7431,2.746,2.7458,2.7591,2.7563,2.758,2.7616,2.775,2.7755,2.776,2.7772,2.7781,2.7788,0,0,0,0,0,0,2.7161,2.7218,2.7218,2.7297,2.7338,2.7389,2.7427,2.7429,2.7476,2.7473,2.7495,2.7508,2.7579,2.7605,2.7572,2.7692,2.7669,2.7677,2.7672,2.7681,2.7687,2.7678,2.7559,0,0,0,0,0,2.7172,2.7222,2.727,2.7334,2.7355,2.7387,2.7418,2.7429,2.7472,2.749,2.7524,2.7566,2.7617,2.7651,2.7701,2.778,2.7791,2.7813,2.7819,2.7824,2.783,2.7871,2.7881,2.7778,2.7778,2.7778,0,0,2.7196,2.7233,2.7264,2.7337,2.737,2.7421,2.7402,2.7457,2.7495,2.7499,2.7567,2.7594,2.7643,2.7718,2.7752,2.7742,2.7861,2.783,2.7834,2.7838,2.7877,2.7887,2.7896,2.7782,2.7781,2.7781,0,0,2.7265,2.7299,2.7355,2.7389,2.7438,2.746,2.7473,2.7524,2.7541,2.761,2.7613,2.7659,2.7747,2.7781,2.781,2.789,2.7889,2.7906,2.7938,2.7977,2.7985,2.7993,2.8019,2.8028,2.7912,2.7912,2.7912,0,2.7289,2.7365,2.7384,2.7439,2.747,2.7475,2.7531,2.7563,2.7627,2.7648,2.7635,2.7744,2.7778,2.7859,2.7879,2.7903,2.7918,2.7899,2.7983,2.799,2.7997,2.8022,2.8032,2.7914,2.7914,2.7914,2.7913,0,2.739,2.7443,2.7482,2.7542,2.7578,2.7634,2.7661,2.7695,2.7703,2.7725,2.7794,2.7835,2.7892,2.7912,2.7921,2.7995,2.7986,2.7978,2.7954,2.8008,2.8032,2.8042,2.7916,2.7915,2.7915,2.7915,0,0,2.7468,2.7536,2.755,2.7576,2.7631,2.7673,2.7728,2.7782,2.781,2.7854,2.79,2.7973,2.7965,2.7998,2.8011,2.8046,2.8104,2.8033,2.8035,2.8043,2.8184,2.8188,2.8199,2.8104,2.8106,2.8108,2.8179,0,2.7541,2.7637,2.7656,2.774,2.7788,2.7793,2.784,2.7879,2.7901,2.7945,2.797,2.802,2.8007,2.8026,2.8062,2.8089,2.8132,2.8085,2.8146,2.8148,2.8131,2.8212,2.8217,2.8282,2.8189,2.819,2.8192,0,2.7638,2.7683,2.7771,2.7817,2.7838,2.7881,2.7931,2.7973,2.8017,2.803,2.8066,2.8074,2.813,2.8105,2.8182,2.815,2.8176,2.8193,2.8196,2.8201,2.8171,2.8217,2.8304,2.8313,2.8207,2.8206,2.8205,0,2.7683,2.7765,2.7828,2.7851,2.7907,2.7936,2.7961,2.8003,2.8033,2.8078,2.8098,2.8149,2.8176,2.8215,2.8236,2.8216,2.8311,2.8288,2.8323,2.8322,2.8341,2.8339,2.8431,2.8362,2.8361,2.8361,2.8361,0,2.7761,2.7814,2.7848,2.7887,2.7946,2.7967,2.8025,2.805,2.8086,2.8129,2.8138,2.8177,2.8204,2.8248,2.8266,2.8325,2.8339,2.835,2.8354,2.8348,2.8346,2.8364,2.8359,2.8364,2.8363,2.8363,2.8362,0,2.782,2.7845,2.7914,2.7961,2.7974,2.8015,2.8055,2.8093,2.8114,2.8168,2.8182,2.8217,2.8268,2.8294,2.8359,2.837,2.8437,2.8439,2.8422,2.8423,2.8455,2.8451,2.856,2.8574,2.8497,2.8498,2.8499,0,2.7867,2.7908,2.7959,2.7987,2.8012,2.8059,2.809,2.8112,2.8144,2.8195,2.8226,2.8278,2.832,2.8402,2.8433,2.8482,2.8484,2.8519,2.8491,2.8484,2.8481,2.8478,2.8481,2.8523,2.8524,2.8524,2.8525,0,2.7947,2.7957,2.8001,2.8049,2.8085,2.8125,2.8163,2.8186,2.8214,2.825,2.8302,2.8335,2.84,2.845,2.8501,2.8527,2.853,2.8533,2.8544,2.8537,2.8524,2.8529,2.8433,2.8531,2.853,2.853,2.8529,2.8529,2.8,2.8035,2.8076,2.8124,2.8155,2.819,2.8227,2.8252,2.8296,2.835,2.8361,2.8415,2.8456,2.8525,2.8552,2.8595,2.8587,2.8602,2.8606,2.8609,2.8609,2.8519,2.8604,2.8604,2.8604,2.8604,2.8604,0,2.8078,2.8104,2.8148,2.8201,2.8238,2.8238,2.828,2.8311,2.8359,2.8397,2.8438,2.8497,2.8546,2.858,2.8629,2.8657,2.8659,2.8669,2.8666,2.8671,2.8614,2.8599,2.8666,2.8666,2.8666,2.8666,2.8666,2.8666,2.8122,2.8182,2.8196,2.827,2.8296,2.8349,2.8373,2.8405,2.8435,2.85,2.854,2.8562,2.8598,2.8649,2.8694,2.8702,2.8719,2.8728,2.8737,2.8682,2.8676,2.8669,2.8655,2.8732,2.8733,2.879,2.879,2.8791]},{"header":{"parameterUnit":"m.s-1","parameterCategory":1,"la1":30.2991,"la2":30.254,"lo1":-89.0895,"lo2":-89.0444,"dy":0.0017,"dx":0.0017,"nx":28,"ny":28,"refTime":"2024-03-18T03:00:00:Z","depth":0,"parameterNumber":3,"parameterNumberName":"V-component_of_WINDS"},"data":[0,0,0,0,0,0,0,0,0,0,0,0,0,0,0,0,0,0,0,0,0,0,0,0,0,0,0,0,0,0,0,0,0,0,0,0,0,0,0,0,0,0,0,0,0,0,0,0,0,0,0,0,0,0,0,0,0,0,2.2392,2.2392,0,2.2372,2.2372,2.2371,2.2356,2.2356,2.2356,2.2356,2.2332,2.2332,2.2331,0,0,0,0,0,0,0,0,0,0,0,0,0,2.2413,2.2413,2.2392,2.2392,2.2392,2.2372,2.2372,2.2371,2.2356,2.2356,2.2356,2.2356,2.2332,2.2332,2.2331,0,0,0,0,0,0,0,0,0,0,0,0,0,2.2399,2.2413,2.2392,2.2382,2.2381,2.2372,2.2372,2.2371,2.2356,2.2356,2.2356,2.2356,2.2332,2.2332,2.2331,2.233,0,0,2.2329,2.2328,0,0,0,0,0,0,0,0,2.24,2.2399,2.2384,2.2383,2.2381,2.2366,2.237,2.2357,2.2356,2.2365,2.2356,2.2355,2.2343,2.2342,2.2338,2.2329,2.2328,2.2328,2.2328,2.2328,2.2327,0,0,0,0,0,0,0,2.2401,2.2399,2.2384,2.2383,2.2382,2.2376,2.2374,2.2368,2.2356,2.2365,2.2363,2.2361,2.2343,2.2339,2.2338,2.2328,2.2329,2.2328,2.2327,2.2327,2.2313,2.2313,0,0,0,0,0,0,2.2404,2.24,2.2385,2.2384,2.2391,2.2376,2.2374,2.2371,2.2356,2.2353,2.2361,2.2361,2.234,2.2338,2.2337,2.2332,2.2328,2.2327,2.2327,2.2312,2.2313,2.2313,0,0,0,0,0,0,2.2405,2.2403,2.2386,2.2392,2.2389,2.2376,2.2373,2.2371,2.2367,2.2353,2.2351,2.236,2.234,2.2338,2.2331,2.2331,2.2327,2.2326,2.2312,2.2312,2.2313,2.2325,0,0,0,0,0,0,2.2406,2.2403,2.2405,2.2392,2.2389,2.2382,2.2373,2.2371,2.2366,2.2365,2.2352,2.2349,2.234,2.2332,2.233,2.233,2.2325,2.2312,2.2312,2.2313,2.2325,2.2326,2.2327,0,0,0,0,0,2.2406,2.2409,2.2405,2.2403,2.239,2.2382,2.238,2.237,2.2367,2.2366,2.2357,2.235,2.2332,2.2332,2.233,2.2329,2.2312,2.2312,2.2313,2.2324,2.2326,2.2327,0,0,0,0,0,0,2.2422,2.2407,2.2402,2.2401,2.2393,2.238,2.238,2.2373,2.2365,2.2364,2.2351,2.2348,2.2342,2.2335,2.2335,2.2325,2.2321,2.232,2.2331,2.2332,2.2333,2.2334,2.2325,0,0,0,0,0,2.2425,2.2422,2.2409,2.2409,2.2405,2.2393,2.2389,2.2382,2.2373,2.2369,2.2359,2.2349,2.2341,2.2336,2.2328,2.2323,2.2319,2.2322,2.2323,2.2323,2.2323,2.2317,2.2317,2.2313,2.2313,2.2313,0,0,2.2432,2.2424,2.2422,2.2412,2.2405,2.2399,2.239,2.2386,2.2381,2.2368,2.2361,2.2353,2.2341,2.2334,2.2331,2.2328,2.2323,2.2324,2.2324,2.2324,2.2317,2.2317,2.2318,2.2313,2.2313,2.2313,0,0,2.2442,2.2436,2.2434,2.2427,2.2416,2.2407,2.2407,2.2394,2.2388,2.2381,2.237,2.2363,2.235,2.2341,2.2335,2.2337,2.2329,2.2334,2.2339,2.2333,2.2334,2.2334,2.2332,2.2332,2.2334,2.2334,2.2334,0,2.2452,2.2444,2.2434,2.2429,2.2423,2.2412,2.2408,2.2401,2.2388,2.2383,2.238,2.2361,2.2353,2.2342,2.2343,2.2339,2.2336,2.2336,2.2335,2.2335,2.2335,2.2333,2.2333,2.2335,2.2335,2.2335,2.2335,0,2.2455,2.245,2.245,2.2437,2.2431,2.2427,2.2414,2.2409,2.2401,2.2392,2.2383,2.2372,2.236,2.2357,2.235,2.2344,2.2343,2.2337,2.2332,2.2336,2.2334,2.2333,2.2336,2.2335,2.2335,2.2335,0,0,2.2476,2.2456,2.2455,2.2448,2.2434,2.2429,2.2422,2.2411,2.2406,2.2396,2.2389,2.2377,2.2371,2.2363,2.2355,2.235,2.2349,2.2344,2.2344,2.2344,2.2339,2.2342,2.2342,2.2343,2.2343,2.2343,2.2339,0,2.2482,2.2472,2.2461,2.2453,2.2447,2.2434,2.2428,2.2417,2.2408,2.2399,2.2388,2.2379,2.2373,2.2368,2.2362,2.235,2.2347,2.235,2.2334,2.2334,2.2337,2.2341,2.2346,2.2343,2.2339,2.2339,2.2339,0,2.2488,2.2479,2.2471,2.2454,2.2451,2.2446,2.2433,2.2426,2.2412,2.2405,2.2395,2.2386,2.2376,2.2371,2.2356,2.2358,2.2351,2.2343,2.2343,2.234,2.2336,2.2337,2.2342,2.2341,2.2338,2.2338,2.2338,0,2.2501,2.2486,2.2479,2.2473,2.2455,2.2451,2.2443,2.2429,2.2421,2.2409,2.2404,2.2391,2.2383,2.2372,2.2357,2.2356,2.2342,2.2338,2.2335,2.2335,2.2332,2.2332,2.2334,2.2329,2.2329,2.2329,2.2329,0,2.2508,2.2503,2.2484,2.248,2.2473,2.2459,2.2452,2.2442,2.2429,2.2421,2.2408,2.24,2.2382,2.2371,2.236,2.2347,2.2344,2.2337,2.2334,2.2337,2.2338,2.2332,2.2331,2.2329,2.2329,2.2329,2.2329,0,2.2522,2.2509,2.25,2.2482,2.2477,2.2473,2.2456,2.245,2.2439,2.2428,2.2425,2.2407,2.2393,2.2378,2.2359,2.235,2.2338,2.2334,2.2343,2.2341,2.2338,2.2338,2.2335,2.2333,2.2331,2.2331,2.2331,0,2.2527,2.2523,2.2504,2.2498,2.249,2.248,2.2472,2.2457,2.2449,2.2431,2.2426,2.2412,2.2399,2.2377,2.2361,2.2345,2.234,2.234,2.2338,2.234,2.2338,2.2338,2.2336,2.2341,2.2341,2.2341,2.2341,0,2.2536,2.253,2.252,2.2506,2.2497,2.2486,2.2474,2.2469,2.2451,2.2442,2.2428,2.2418,2.2398,2.2382,2.2364,2.2353,2.2343,2.2342,2.234,2.2343,2.2348,2.2343,2.2343,2.2342,2.2342,2.2342,2.2342,2.2341,2.2544,2.2539,2.2525,2.2513,2.2502,2.249,2.2483,2.247,2.2459,2.2441,2.2433,2.2418,2.24,2.2375,2.2364,2.2351,2.2348,2.2346,2.2345,2.2344,2.2344,2.235,2.2348,2.2347,2.2347,2.2347,2.2347,0,2.2552,2.2541,2.2531,2.2514,2.2504,2.2496,2.2481,2.2473,2.246,2.2446,2.2433,2.2415,2.2399,2.2381,2.2363,2.2355,2.235,2.2351,2.2351,2.2348,2.2349,2.2352,2.2355,2.2355,2.2355,2.2355,2.2355,2.2355,2.2554,2.2544,2.2535,2.2518,2.2507,2.2493,2.2485,2.2473,2.2461,2.2442,2.2428,2.2417,2.24,2.2381,2.2364,2.2359,2.2352,2.2355,2.2348,2.2349,2.2348,2.2348,2.235,2.2354,2.2354,2.2348,2.2348,2.2348]}]]